GW1328 Weather Reports


time (UTC)temp
C
wind
direction
speed
KPH
gust
KPH
rain 1hr
cm
rain 24hr
cm
rain mn
cm
humidity
%
barometer
mb
20260504232036 16 0 0.0 0.0 0.00 0.03 0.03 62 1005.2
20260504231548 16 0 0.0 0.0 0.00 0.03 0.03 58 1005.2
20260504231034 17 0 0.0 3.2 0.00 0.03 0.03 57 1005.2
20260504230534 17 0 0.0 4.8 0.00 0.03 0.03 53 1005.1
20260504230049 17 0 1.6 4.8 0.00 0.03 0.03 51 1005.0
20260504225536 17 250 0.0 4.8 0.00 0.03 0.03 51 1005.0
20260504225037 18 250 1.6 4.8 0.00 0.03 0.03 50 1005.0
20260504224546 18 0 1.6 4.8 0.00 0.03 0.03 46 1005.1
20260504224035 18 250 1.6 6.4 0.00 0.03 0.03 47 1005.1
20260504223537 18 250 3.2 9.7 0.00 0.03 0.03 46 1005.0
20260504223100 18 250 3.2 9.7 0.00 0.03 0.03 48 1004.9
20260504222535 18 265 4.8 9.7 0.00 0.03 0.03 47 1005.0
20260504222034 17 213 6.4 9.7 0.00 0.03 0.03 47 1005.0
20260504221601 17 202 3.2 8.0 0.00 0.03 0.03 49 1005.1
20260504221034 17 0 3.2 14.5 0.00 0.03 0.03 48 1005.1
20260504220534 17 190 6.4 17.7 0.00 0.03 0.03 48 1005.0
20260504220055 17 248 4.8 17.7 0.00 0.03 0.03 48 1005.1
20260504215534 17 242 6.4 17.7 0.00 0.03 0.03 48 1005.1
20260504215034 17 236 6.4 17.7 0.00 0.03 0.03 48 1005.1
20260504214554 17 320 6.4 17.7 0.00 0.03 0.03 49 1005.2
20260504214035 17 232 4.8 25.7 0.00 0.03 0.03 48 1005.2
20260504213534 17 260 6.4 25.7 0.00 0.03 0.03 48 1005.2
20260504213100 17 267 11.3 25.7 0.00 0.03 0.03 48 1005.3
20260504212531 17 233 11.3 22.5 0.00 0.03 0.03 48 1005.2
20260504212033 17 253 8.0 33.8 0.00 0.03 0.03 48 1005.1
20260504211548 17 289 9.7 33.8 0.00 0.03 0.03 47 1005.1
20260504211033 17 245 19.3 30.6 0.00 0.03 0.03 46 1005.2
20260504210537 18 279 11.3 29.0 0.00 0.03 0.03 46 1005.0
20260504210047 18 290 12.9 29.0 0.00 0.03 0.03 46 1005.0
20260504205535 17 288 16.1 24.1 0.00 0.03 0.03 46 1004.9
20260504205035 17 303 11.3 19.3 0.00 0.03 0.03 48 1005.0
20260504204550 17 258 8.0 27.4 0.00 0.03 0.03 49 1005.0
20260504204034 17 286 14.5 33.8 0.00 0.03 0.03 48 1005.1
20260504203534 17 229 17.7 33.8 0.00 0.03 0.03 48 1005.0
20260504203048 17 270 12.9 30.6 0.00 0.03 0.03 49 1005.0
20260504202534 17 221 16.1 30.6 0.00 0.03 0.03 48 1005.1
20260504202034 17 257 14.5 29.0 0.00 0.03 0.03 48 1005.1
20260504201544 17 332 12.9 29.0 0.00 0.03 0.03 49 1005.2
20260504201032 17 265 16.1 33.8 0.00 0.03 0.03 49 1005.1
20260504200534 17 255 12.9 33.8 0.00 0.03 0.03 50 1005.1
20260504200044 17 219 19.3 33.8 0.00 0.03 0.03 49 1005.0
20260504195530 17 247 16.1 35.4 0.00 0.03 0.03 51 1005.1
20260504195032 17 266 17.7 35.4 0.00 0.03 0.03 51 1005.1
20260504194546 17 267 17.7 33.8 0.00 0.03 0.03 54 1005.1
20260504194032 17 211 19.3 33.8 0.00 0.03 0.03 51 1005.2
20260504193538 17 175 12.9 29.0 0.00 0.03 0.03 54 1005.1
20260504193043 16 208 9.7 29.0 0.00 0.03 0.03 56 1005.2
20260504192532 16 181 9.7 19.3 0.00 0.03 0.03 60 1005.3
20260504192037 16 188 4.8 17.7 0.00 0.03 0.03 60 1005.3
20260504191542 16 226 8.0 17.7 0.00 0.03 0.03 61 1005.2
20260504191034 16 217 6.4 17.7 0.00 0.03 0.03 61 1005.3
20260504190532 15 236 9.7 17.7 0.00 0.03 0.03 63 1005.4
20260504190048 15 297 8.0 17.7 0.00 0.03 0.03 65 1005.5
20260504185531 14 262 6.4 24.1 0.00 0.03 0.03 67 1005.6
20260504185035 14 210 6.4 24.1 0.00 0.03 0.03 67 1005.6
20260504184544 13 308 9.7 20.9 0.00 0.03 0.03 67 1005.7
20260504184035 13 246 11.3 20.9 0.00 0.03 0.03 69 1005.8
20260504183535 13 234 11.3 19.3 0.00 0.03 0.03 71 1005.7
20260504183044 13 219 8.0 17.7 0.00 0.03 0.03 74 1005.8
20260504182534 13 274 8.0 16.1 0.00 0.03 0.03 73 1005.8
20260504182036 13 209 4.8 16.1 0.00 0.03 0.03 74 1005.9
20260504181556 12 247 6.4 16.1 0.03 0.03 0.03 75 1005.8
20260504181037 12 201 9.7 16.1 0.03 0.03 0.03 75 1005.8
20260504180536 12 201 6.4 12.9 0.03 0.03 0.03 78 1005.8
20260504180053 12 241 3.2 14.5 0.03 0.03 0.03 77 1005.8
20260504175536 12 256 6.4 14.5 0.03 0.03 0.03 78 1005.8
20260504175040 12 228 4.8 14.5 0.03 0.03 0.03 80 1005.8
20260504174547 11 254 6.4 14.5 0.03 0.03 0.03 81 1005.9
20260504174036 11 204 4.8 11.3 0.03 0.03 0.03 80 1006.0
20260504173536 11 276 3.2 11.3 0.03 0.03 0.03 78 1006.2
20260504173050 11 334 1.6 11.3 0.03 0.03 0.03 78 1006.3
20260504172535 12 295 3.2 16.1 0.03 0.03 0.03 77 1006.4
20260504172036 12 286 6.4 16.1 0.03 0.03 0.03 75 1006.4
20260504171559 12 294 8.0 16.1 0.00 0.00 0.00 74 1006.1
20260504171037 12 296 8.0 17.7 0.00 0.00 0.00 72 1006.0
20260504170540 13 355 8.0 17.7 0.00 0.00 0.00 69 1005.9
20260504151036 12 206 11.3 25.7 0.00 0.18 0.00 60 1005.8
20260504150536 12 221 11.3 25.7 0.00 0.18 0.00 61 1005.9
20260504141036 10 196 9.7 17.7 0.00 0.30 0.00 62 1006.6
20260504140536 10 232 8.0 19.3 0.00 0.30 0.00 62 1006.6
20260504130537 8 192 8.0 12.9 0.00 0.43 0.00 62 1007.5
20260504110534 1 0 0.0 0.0 0.00 0.53 0.00 95 1007.7
20260504100534 -1 267 0.0 1.6 0.00 0.56 0.00 94 1007.7
20260504081551 -1 0 0.0 3.2 0.00 0.64 0.00 92 1007.5
20260504081036 -1 268 0.0 3.2 0.00 0.64 0.00 92 1007.5
20260504080535 -1 268 0.0 4.8 0.00 0.64 0.00 92 1007.6
20260504080104 -1 0 0.0 4.8 0.00 0.64 0.00 92 1007.4
20260504050536 0 0 0.0 3.2 0.00 0.64 0.00 88 1007.2
20260504045536 0 268 1.6 3.2 0.00 0.64 0.00 88 1007.1
20260504045035 0 0 0.0 0.0 0.00 0.64 0.00 88 1007.0
20260504044544 0 0 0.0 0.0 0.00 0.64 0.00 88 1007.1
20260504044034 0 0 0.0 3.2 0.00 0.64 0.00 88 1007.1
20260504043536 0 0 0.0 3.2 0.00 0.64 0.00 87 1007.1
20260504043054 0 268 1.6 3.2 0.00 0.64 0.00 86 1007.1
20260504042537 1 0 0.0 3.2 0.00 0.64 0.00 86 1007.2
20260504042036 1 268 0.0 3.2 0.00 0.64 0.00 86 1007.1
20260504041545 1 0 0.0 1.6 0.00 0.64 0.00 86 1007.1
20260504041036 1 0 0.0 3.2 0.00 0.64 0.00 86 1007.1
20260504040539 1 268 0.0 4.8 0.00 0.64 0.00 85 1007.1
20260504040104 1 268 1.6 4.8 0.00 0.64 0.00 85 1007.0
20260504035533 1 268 1.6 4.8 0.00 0.64 0.64 84 1007.0
20260504035037 1 268 0.0 0.0 0.00 0.64 0.64 84 1007.0
20260504034546 1 0 0.0 0.0 0.00 0.64 0.64 84 1006.9
20260504034037 1 0 0.0 0.0 0.00 0.64 0.64 83 1006.9
20260504033536 2 0 0.0 0.0 0.00 0.64 0.64 83 1006.9
20260504033045 2 0 0.0 0.0 0.00 0.64 0.64 80 1006.9
20260504032535 2 0 0.0 0.0 0.00 0.64 0.64 80 1006.9
20260504032036 2 0 0.0 0.0 0.00 0.64 0.64 80 1006.8
20260504031543 2 0 0.0 1.6 0.00 0.64 0.64 79 1006.7
20260504031037 2 0 0.0 3.2 0.00 0.64 0.64 77 1006.7
20260504030534 2 0 0.0 3.2 0.00 0.64 0.64 77 1006.6
20260504030050 3 268 0.0 3.2 0.00 0.64 0.64 76 1006.4
20260504025534 3 0 0.0 1.6 0.00 0.74 0.64 76 1006.4
20260504025038 3 0 0.0 1.6 0.00 0.74 0.64 75 1006.4
20260504024549 3 0 0.0 3.2 0.00 0.74 0.64 74 1006.4
20260504024036 3 0 0.0 3.2 0.00 0.74 0.64 71 1006.4
20260504023536 4 268 0.0 4.8 0.00 0.74 0.64 69 1006.3
20260504023057 4 268 0.0 4.8 0.00 0.74 0.64 68 1006.2
20260504022539 5 268 1.6 4.8 0.00 0.74 0.64 66 1006.3
20260504022035 5 268 1.6 4.8 0.00 0.74 0.64 65 1006.3
20260504021552 5 268 1.6 4.8 0.00 0.74 0.64 63 1006.4
20260504021033 5 268 1.6 9.7 0.00 0.74 0.64 60 1006.4
20260504020536 6 268 1.6 14.5 0.00 0.74 0.64 60 1006.3
20260504020050 6 275 3.2 14.5 0.00 0.74 0.64 59 1006.3
20260504015536 6 279 1.6 9.7 0.00 0.79 0.64 58 1006.3
20260504015037 6 274 3.2 9.7 0.00 0.79 0.64 57 1006.3
20260504014558 6 284 1.6 8.0 0.00 0.79 0.64 57 1006.3
20260504014037 6 282 0.0 8.0 0.00 0.79 0.64 56 1006.2
20260504013537 6 290 1.6 6.4 0.00 0.79 0.64 57 1006.2
20260504013048 6 302 1.6 12.9 0.00 0.79 0.64 56 1006.2
20260504012539 7 304 6.4 14.5 0.00 0.79 0.64 56 1006.2
20260504012036 7 285 6.4 17.7 0.00 0.79 0.64 56 1006.1
20260504011546 7 265 4.8 17.7 0.00 0.79 0.64 54 1006.1
20260504011034 6 321 4.8 16.1 0.00 0.79 0.64 55 1006.0
20260504010536 6 273 6.4 16.1 0.00 0.79 0.64 55 1005.9
20260504010051 7 289 1.6 8.0 0.00 0.79 0.64 56 1005.8
20260504005539 7 300 3.2 17.7 0.00 0.86 0.64 53 1005.7
20260504005036 7 310 4.8 17.7 0.00 0.86 0.64 52 1005.7
20260504004550 7 298 9.7 17.7 0.00 0.86 0.64 52 1005.6
20260504004036 7 310 8.0 19.3 0.00 0.86 0.64 51 1005.5
20260504003536 7 300 6.4 19.3 0.00 0.86 0.64 51 1005.5
20260504003052 7 323 8.0 19.3 0.00 0.86 0.64 50 1005.3
20260504002536 7 309 6.4 14.5 0.00 0.86 0.64 50 1005.2
20260504002036 7 0 4.8 14.5 0.00 0.86 0.64 50 1005.2
20260504001603 8 311 6.4 19.3 0.00 0.86 0.64 50 1005.1
20260504001037 8 309 8.0 19.3 0.00 0.86 0.64 49 1005.1
20260504000536 8 294 9.7 22.5 0.00 0.86 0.64 49 1005.0
20260504000115 8 316 9.7 22.5 0.00 0.86 0.64 49 1005.0
20260503235538 8 327 4.8 16.1 0.00 1.07 0.64 48 1004.9
20260503235038 8 325 8.0 16.1 0.00 1.07 0.64 48 1004.8
20260503234544 8 292 6.4 16.1 0.00 1.07 0.64 48 1004.8
20260503234034 8 321 8.0 14.5 0.00 1.07 0.64 47 1004.7
20260503233537 8 288 6.4 29.0 0.00 1.07 0.64 47 1004.5
20260503233045 8 317 12.9 29.0 0.00 1.07 0.64 46 1004.6
20260503232533 8 325 14.5 30.6 0.00 1.07 0.64 45 1004.5